Location: Palomar Mountain Lodge
(33.3110°N, 116.8495°W)
Time: 05:40:09
(UTC-07:00)

Cosmos 1238 Rocket - Pass Details

Date: 19 May 2017
Orbit: 375 x 1050 km, 82.9° (Epoch: 22 July)

Event Time Altitude Azimuth Distance (km) Brightness Sun altitude
Exits shadow 21:35:15 35° 137° (SE) 1,590 4.5 -20.2°
Maximum altitude 21:37:31 48° 90° (E) 1,333 4.4 -20.6°
Drops below altitude 10° 21:43:56 10° 19° (NNE) 2,868 6.8 -21.5°
Sets 21:46:37 0° 14° (NNE) 3,806 7.5 -21.9°
